Regional Weather Roundup
Issued by NWS

Home | Current Version | Previous Version | Text Only | Print | Product List | Glossary Off
Versions: 1 2 3 4 5 6 7 8 9 10 11 12 13 14 15 16 17 18 19 20 21 22 23 24 25 26 27 28 29 30 31 32 33 34 35 36 37 38 39 40 41 42 43 44 45 46 47 48 49 50

000
ASUS43 KLOT 261709
RWRIL

ILLINOIS REGIONAL WEATHER ROUNDUP
NATIONAL WEATHER SERVICE CHICAGO/ROMEOVILLE IL
1200 PM CDT FRI AUG 26 2016

NOTE: "FAIR" INDICATES FEW OR NO CLOUDS BELOW 12,000 FEET WITH NO
SIGNIFICANT WEATHER AND/OR OBSTRUCTIONS TO VISIBILITY.

* THESE STATIONS ARE NOT UNDER NWS QUALITY CONTROL. THEY ALSO MAY NOT
  REPORT WEATHER SUCH AS PRECIPITATION OR FOG.

ILZ001-002-007-009-015-016-024-261800-
NORTHWEST ILLINOIS

CITY           SKY/WX    TMP DP  RH WIND       PRES   REMARKS
MOLINE         CLOUDY    74  61  63 E10       30.18R
STERLING*      PTSUNNY   73  63  70 E9        30.17F
SAVANNA*       MOSUNNY   75  61  61 E6        30.17F
$$

ILZ003-004-008-010-011-017-018-261800-
NORTH CENTRAL ILLINOIS

CITY           SKY/WX    TMP DP  RH WIND       PRES   REMARKS
ROCKFORD       CLOUDY    73  60  63 SE7       30.19S
FREEPORT*      PTSUNNY   71  59  66 E6        30.20S
ROCHELLE*      CLOUDY    72  62  69 E5        30.19S
DE KALB*       CLOUDY    72  63  72 NE6       30.19S
$$

ILZ005-006-012>014-019>023-261800-
NORTHEAST ILLINOIS

CITY           SKY/WX    TMP DP  RH WIND       PRES   REMARKS
CHICAGO-OHARE  CLOUDY    78  58  49 NE6       30.16F
CHICAGO-MIDWAY CLOUDY    78  62  57 E7        30.16F HX  80
AURORA         CLOUDY    77  62  59 NE3       30.18S
LANSING*       PTSUNNY   78  69  73 NE6       30.16F
JOLIET*        PTSUNNY   80  66  63 E6        30.16S HX  82
WAUKEGAN       CLOUDY    74  59  59 E7        30.17F
DUPAGE AIRPORT MOSUNNY   77  60  55 N5        30.17F
KANKAKEE*      PTSUNNY   80  68  66 E5        30.16F HX  82
WHEELING       CLOUDY    77  57  50 E7        30.18F
MORRIS*        PTSUNNY   77  66  68 CALM      30.16S
ROMEOVILLE*    CLOUDY    77  67  70 E6        30.17S
NORTHERLY ISL    N/A     74  65  73 MISG        N/A
$$

LMZ740>746-261800-
SOUTHERN LAKE MICHIGAN

STATION/POSITION SKY/WX   TEMP    WIND        PRES    VSBY  WAVE
                          AIR SEA DIR/SP/G                  HT/PER
                          (F)     (DEG/KT/KT) (MB)    (MI)  (FT/S)
SOUTHERN BUOY              71 75  320/  2/  4 1021.5F         1/ 3
WILMETTE HARBOR            69 68   20/  4/  6   N/A           1/ 3
HARRISON CRIB              67     340/ 10/ 10   N/A
BURNHAM HARBOR             73     350/  6/  8   N/A
CALUMET HARBOR             71     330/  9/ 11 1021.6R
BURNS HARBOR               74      40/  8/  8 1022.0S
MICHIGAN CITY              73     350/  7/  8   N/A
MICHIGAN CITY 6N           74 75   10/  8/ 10   N/A           1/ 4
ST. JOSEPH                 73 77  340/  6/  8 1021.4F         1/ 4
$$

ILZ025>027-034>036-040-047-049-050-058-095>099-261800-
WEST-CENTRAL ILLINOIS

CITY           SKY/WX    TMP DP  RH WIND       PRES   REMARKS
QUINCY         CLOUDY    72  72 100 E10       30.14F
GALESBURG*     LGT RAIN  71  65  80 NE5       30.16F
MACOMB*        LGT RAIN  71  68  90 E3        30.17F
JACKSONVILLE*  CLOUDY    77  70  78 NE6       30.14S
PITTSFIELD*    CLOUDY    75  71  86 NE7       30.14F
$$

ILZ028>032-037-038-041>044-048-051>054-059>061-261800-
CENTRAL ILLINOIS

CITY           SKY/WX    TMP DP  RH WIND       PRES   REMARKS
PONTIAC        CLOUDY    80  70  71 CALM      30.17S HX  83
BLOOMINGTON    CLOUDY    77  69  76 NE10      30.16F
DECATUR        CLOUDY    82  72  71 E6        30.13F HX  87
PEORIA         PTSUNNY   75  68  78 NE8       30.15F
LACON*         CLOUDY    78  65  63 NE5       30.15S HX  80
LINCOLN*       CLOUDY    79  72  79 E3        30.14S HX  82
SPRINGFIELD    CLOUDY    78  69  73 E5        30.14S HX  80
TAYLORVILLE    CLOUDY    82  73  74 NE5       30.12F HX  87
$$

ILZ033-039-045-046-055>057-062-063-261800-
EAST-CENTRAL ILLINOIS

CITY           SKY/WX    TMP DP  RH WIND       PRES   REMARKS
CHAMPAIGN      CLOUDY    82  74  76 NE8       30.14F HX  88
RANTOUL*       CLOUDY    82  73  75 E6        30.14F HX  87
MATTOON        CLOUDY    84  74  71 CALM      30.11F HX  91
PARIS*         MOSUNNY   85  76  75 CALM      30.13F HX  94
$$

ILZ079-100>102-261800-
SOUTHWEST ILLINOIS

CITY           SKY/WX    TMP DP  RH WIND       PRES   REMARKS
ALTON          PTSUNNY   82  73  74 VRB5      30.11F HX  88
BELLEVILLE     CLOUDY    86  75  71 VRB2      30.08F HX  95
CAHOKIA*       CLOUDY    86  73  65 CALM      30.09F HX  93
SPARTA*        CLOUDY    85  75  71 S3        30.10F HX  94
$$

ILZ064>066-069>071-074>076-080>082-084>086-088>090-092>094-261800-
SOUTH-CENTRAL ILLINOIS

CITY           SKY/WX    TMP DP  RH WIND       PRES   REMARKS
CARBONDALE     MOSUNNY   90  73  57 S6        30.09F THUNDER HX  98
CAIRO*         CLOUDY    88  77  69 CALM      30.09F HX 100
EFFINGHAM*     CLOUDY    88  78  74 E3        30.12S HX 101
MARION         PTSUNNY   91  77  62 SE6       30.10F HX 105
MT. VERNON     MOSUNNY   91  73  55 CALM      30.10F HX 100
CENTRALIA*     PTSUNNY   90  79  69 S5        30.09F HX 105
SALEM*         CLOUDY    88  76  69 SE3       30.10F HX  98
METROPOLIS*    PTSUNNY   91  76  60 CALM      30.10F HX 103
$$

ILZ067-068-072-073-078-083-087-091-261800-
SOUTHEAST ILLINOIS

CITY           SKY/WX    TMP DP  RH WIND       PRES   REMARKS
LAWRENCEVILLE  MOSUNNY   90  75  61 VRB6      30.11F HX 100
FLORA*         MOSUNNY   90  77  67 S7        30.11S HX 103
FAIRFIELD*     MOSUNNY   89  76  65 CALM      30.09F HX  99
HARRISBURG*    PTSUNNY   90  77  64 S3        30.10F HX 103
ROBINSON*      CLOUDY    87  78  73 S5        30.12S HX  99
CARMI*         MOSUNNY   88  77  69 CALM      30.10S HX 100
$$

ABBREVIATIONS USED IN REMARKS
   TC - TEMPERATURE IN CELSIUS
  WCI - WIND CHILL INDEX
   HX - HEAT INDEX
  VSB - VISIBILITY
$$





USA.gov is the U.S. government's official web portal to all federal, state and local government web resources and services.